Flag for Switzerland Weather past 2 weeks in Sion, Valais, Switzerland

Now
81 °F

Scattered clouds.


Feels Like: 82 °F
Forecast: 67 / 80 °F
Wind: 9 mph from West

Location: Sion

Current Time: Aug 1, 2014 at 3:08:17 PM

Latest Report: Aug 1, 2014 at 2:00 PM


Visibility: 13 mi

Pressure: 29.72 "Hg

Humidity: 53%

Dew point: 62 °F

Location of SionLocation

Historic Weather in Sion — Graph

°F

Sion temperature yesterday

Maximum temperature yesterday: 82 °F (at 5:00 PM)
Minimum temperature yesterday: 62 °F (at 4:00 AM)
Average temperature yesterday: 70 °F

Past Weeks' High & Low Weather Summary

 TemperatureHumidityPressure
High92 °F (Jul 18, 4:00 PM)98% (Jul 21, 6:00 AM)30.14 "Hg (Jul 21, 6:00 AM)
Low55 °F (Jul 29, 6:00 AM)26% (Jul 18, 4:00 PM)29.72 "Hg (Jul 28, 4:00 PM)
Average68 °F74%29.91 "Hg
* Reported Jul 17 1:00 PM — Aug 1 1:00 PM, Sion, Weather by CustomWeather, © 2014

Note: Actual official high and low records may vary slightly from our data, if they occured in-between our weather recording intervals... More about our weather records

Advertising

Sion weather history for previous 24 hours

 ConditionsComfort  
Time TempWeatherWind HumidityBarometerVisibility
1:00 PM
Aug 1
79 °FWarm.8 mph59%29.75 "HgN/A
12:00 PM76 °FMild.3 mph69%29.78 "HgN/A
11:00 AM72 °FScattered clouds.2 mph76%29.81 "Hg12 mi
10:00 AM69 °FMild.2 mph81%29.84 "HgN/A
9:00 AM67 °FMild.2 mph93%29.86 "HgN/A
8:00 AM65 °FOvercast.1 mph90%29.87 "Hg12 mi
7:00 AM65 °FMild.1 mph88%29.86 "HgN/A
6:00 AM65 °FMild.5 mph87%29.86 "HgN/A
5:00 AM65 °FPassing clouds.2 mph89%29.88 "Hg12 mi
4:00 AM65 °FMild.1 mph91%29.89 "HgN/A
3:00 AM65 °FMild.No wind93%29.89 "HgN/A
2:00 AM64 °FPassing clouds.No wind90%29.89 "Hg19 mi
1:00 AM65 °FMild.2 mph87%29.90 "HgN/A
12:00 AM67 °FMild.3 mph83%29.89 "HgN/A
11:00 PM
Jul 31
69 °FClear.2 mph77%29.87 "Hg19 mi
10:00 PM70 °FMild.3 mph74%29.85 "HgN/A
9:00 PM73 °FMild.9 mph66%29.81 "HgN/A
8:00 PM75 °FPassing clouds.9 mph65%29.79 "Hg16 mi
7:00 PM79 °FWarm.18 mph57%29.77 "HgN/A
6:00 PM79 °FWarm.20 mph55%29.77 "HgN/A
5:00 PM82 °FPassing clouds.17 mph51%29.78 "Hg16 mi
4:00 PM80 °FWarm.14 mph52%29.80 "HgN/A
3:00 PM80 °FWarm.10 mph51%29.82 "HgN/A
Weather by CustomWeather, © 2014

See weather overviewHow to use our weather pages